Regional Weather Roundup
Issued by NWS Sioux Falls, SD

Home | Current Version | Previous Version | Graphics & Text | Print | Product List | Glossary Off
Versions: 1 2 3 4 5 6 7 8 9 10 11 12 13 14 15 16 17 18 19 20 21 22 23 24 25 26 27 28 29 30 31 32 33 34 35 36 37 38 39 40 41 42 43 44 45 46 47 48 49 50

000
ASUS43 KFSD 211102
RWRFSD

WEATHER ROUNDUP FOR SE SOUTH DAKOTA/SW MINNESOTA/NW IOWA
NATIONAL WEATHER SERVICE SIOUX FALLS SD
600 AM CDT MON AUG 21 2017

NOTE: "FAIR" INDICATES FEW OR NO CLOUDS BELOW 12,000 FEET WITH NO
SIGNIFICANT WEATHER AND OR OBSTRUCTIONS TO VISIBILITY.


SDZ038>040-050-052>070-211200-
SOUTHEAST SOUTH DAKOTA

CITY           SKY/WX    TMP DP  RH WIND       PRES   REMARKS
BROOKINGS      MOCLDY    63  59  87 E7        30.02S
CHAMBERLAIN    CLOUDY    60  58  94 E6        29.95F
HURON          CLOUDY    62  59  90 E5        29.99F
MADISON        CLOUDY    63  63 100 E5        30.03R
MITCHELL       PTCLDY    61  60  97 NE6       29.98F
SIOUX FALLS    MOCLDY    67  65  93 E8        30.00R
WINNER         FAIR      64  61  90 SE15      29.94F
YANKTON        CLOUDY    70  65  84 E12       29.97S
$$

MNZ071-072-080-081-089-090-097-098-211200-
SOUTHWEST MINNESOTA

CITY           SKY/WX    TMP DP  RH WIND       PRES   REMARKS
FAIRMONT       CLOUDY    69  67  93 S7        30.02F
JACKSON        CLOUDY    66  66 100 CALM      30.03R FOG
LUVERNE        MOCLDY    64  61  88 NE6       30.01S
MARSHALL       CLOUDY    61  60  97 N3        30.02S
MONTEVIDEO     MOCLDY    57  57 100 SE5       30.03S
PIPESTONE      MOCLDY    66  63  88 E8        30.02S
REDWOOD FALLS  CLOUDY    64  60  87 NE6       30.02R
TRACY          CLOUDY    64  63  98 CALM      30.03S
WINDOM         CLOUDY    64  63  94 E6        30.02F FOG
WORTHINGTON    CLOUDY    66  65  96 NE3       30.03R
$$

IAZ001>003-012>014-020>022-031-032-NEZ013-014-SDZ071-211200-
NORTHWEST IOWA

CITY           SKY/WX    TMP DP  RH WIND       PRES   REMARKS
ESTHERVILLE    CLOUDY    68  68 100 S13       30.01F
ORANGE CITY    CLOUDY    70  70 100 CALM      29.99F
SHELDON        CLOUDY    68  66  94 SE6       29.98F
SIOUX CITY     CLOUDY    68  66  93 SE12      29.99S
SPENCER        CLOUDY    67  66  97 SE9       30.01F
STORM LAKE     RAIN      64  64 100 SE10G16   30.02R VSB 1/2
$$

ABBREVIATIONS USED IN REMARKS
   TC - TEMPERATURE IN CELSIUS
  WCI - WIND CHILL INDEX
   HX - HEAT INDEX
  VSB - VISIBILITY





USA.gov is the U.S. government's official web portal to all federal, state and local government web resources and services.